Location: Bambrugge
(50.9212°N, 3.9299°E)
Time: 05:10:34
(UTC+00:00)

Cosmos 1703 Rocket - Pass Details

Date: 23 May 2024
Orbit: 602 x 629 km, 82.5° (Epoch: 19 June)

Event Time Altitude Azimuth Distance (km) Brightness Sun altitude
Exits shadow 00:59:03 22° 159° (SSE) 1,351 4.9 -16.4°
Maximum altitude 01:01:34 49° 94° (E) 810 4.2 -16.3°
Drops below altitude 10° 01:05:53 10° 20° (NNE) 2,016 7.6 -16.0°
Sets 01:08:11 0° 15° (NNE) 2,931 8.8 -15.9°
